Volver al catálogo

STARLINK-35353

ActivoComunicacionesSSO
NORAD 65669·PAYLOAD·🇺🇸 United States

Lanzado Sep 19, 2025 desde Vandenberg Space Force Base

Loading…

Próximos Pases (próximas 24 horas)

TLE

ActualizadoSource: CelesTrak SupGP

Época: Sep 14, 2026, 21:23 UTC

1 65669C 25211T   26257.89145833  .00013757  00000+0  42728-3 0  2571
2 65669  97.2831 298.2067 0001135  98.6508 268.6014 15.33416459    13

Sigue STARLINK-35353 en tiempo real con AllMySat

Download on the App Store